Johnstown, PA

5:20 PM EDT on April 26, 2018 (GMT -0400)
Johnstown-Cambria County

Weather History for KJST - July, 2012

Change the Weather History Date:

Thursday, July 5, 2012

  Actual Average Record
Temperature  
Mean Temperature 75 °F 69 °F  
Max Temperature 84 °F 78 °F 101 °F (1911)
Min Temperature 68 °F 60 °F 44 °F (1940)
Degree Days  
Heating Degree Days 0 1  
Month to date heating degree days 5  
Since 1 June heating degree days 84  
Since 1 July heating degree days 5  
Cooling Degree Days 10 4  
Month to date cooling degree days 20  
Year to date cooling degree days 113  
Since 1 June cooling degree days 95  
Growing Degree Days 25 (Base 50)    
Moisture  
Dew Point 64 °F    
Average Humidity 68    
Maximum Humidity 87    
Minimum Humidity 53    
Precipitation  
Precipitation 0.00 in 0.12 in 2.20 in (1905)
Month to date precipitation 0.60  
Year to date precipitation 17.24  
Sea Level Pressure  
Sea Level Pressure 29.94 in    
Wind  
Wind Speed 8 mph (WNW)    
Max Wind Speed 16 mph    
Max Gust Speed 23 mph    
Visibility 10 miles    
Events      
T = Trace of Precipitation, MM = Missing Value Source: NWS Daily Summary

Daily Weather History Graph

Daily Weather History Graph

Search for Another Location

Airport or City:

Astronomy

Jul. 05, 2012 Rise Set
Actual Time 5:51 AM EDT 8:48 PM EDT
Civil Twilight 5:18 AM EDT 9:20 PM EDT
Nautical Twilight 4:37 AM EDT 10:02 PM EDT
Astronomical Twilight 3:49 AM EDT 10:50 PM EDT
Moon 10:03 PM EDT (7/5) 8:01 AM EDT (7/5)
Length of Visible Light 16h 01m
Length of Day
14h 56m
Waning Gibbous, 95% of the Moon is Illuminated
Jul 5
Waning Gibbous
Jul 10
Last Quarter
Jul 19
New
Jul 26
First Quarter
Aug 1
Full

Hourly Weather History & Observations

Time (EDT) Temp. Heat Index Dew Point Humidity Pressure Visibility Wind Dir Wind Speed Gust Speed Precip Events Conditions
12:54 AM 72.0 °F - 66.0 °F 81% 29.93 in 9.0 mi SSW 6.9 mph - N/A   Scattered Clouds
1:54 AM 70.0 °F - 66.0 °F 87% 29.90 in 8.0 mi WSW 6.9 mph - N/A   Clear
2:54 AM 71.1 °F - 66.9 °F 87% 29.91 in 7.0 mi West 10.4 mph - N/A   Clear
3:54 AM 70.0 °F - 63.0 °F 78% 29.92 in 10.0 mi West 8.1 mph - N/A   Partly Cloudy
4:54 AM 68.0 °F - 64.0 °F 87% 29.92 in 9.0 mi WSW 6.9 mph - N/A   Clear
5:54 AM 69.1 °F - 60.1 °F 73% 29.93 in 10.0 mi WNW 4.6 mph - N/A   Clear
6:54 AM 70.0 °F - 61.0 °F 73% 29.92 in 10.0 mi NW 5.8 mph - N/A   Clear
7:54 AM 73.0 °F - 61.0 °F 66% 29.94 in 10.0 mi West 4.6 mph - N/A   Clear
8:54 AM 73.9 °F - 63.0 °F 68% 29.97 in 10.0 mi WNW 11.5 mph - N/A   Clear
9:54 AM 75.0 °F - 61.0 °F 62% 29.96 in 10.0 mi WNW 11.5 mph 20.7 mph N/A   Clear
10:54 AM 75.9 °F - 63.0 °F 64% 29.96 in 10.0 mi WNW 11.5 mph - N/A   Clear
11:54 AM 79.0 °F - 64.9 °F 62% 29.96 in 10.0 mi West 10.4 mph - N/A   Clear
12:54 PM 80.1 °F 81.9 °F 64.9 °F 60% 29.94 in 10.0 mi WNW 11.5 mph 19.6 mph N/A   Clear
1:54 PM 82.0 °F 83.8 °F 64.9 °F 56% 29.93 in 10.0 mi WNW 10.4 mph - N/A   Clear
2:54 PM 82.9 °F 84.4 °F 64.0 °F 53% 29.92 in 10.0 mi WNW 11.5 mph 18.4 mph N/A   Clear
3:54 PM 82.9 °F 85.0 °F 66.0 °F 56% 29.92 in 10.0 mi West 10.4 mph - N/A   Clear
4:54 PM 82.9 °F 84.4 °F 64.0 °F 53% 29.93 in 10.0 mi WNW 16.1 mph 23.0 mph N/A   Mostly Cloudy
5:54 PM 82.0 °F 83.4 °F 64.0 °F 54% 29.93 in 10.0 mi WNW 12.7 mph - N/A   Clear
6:54 PM 80.1 °F 81.9 °F 64.9 °F 60% 29.91 in 10.0 mi NW 11.5 mph - N/A   Clear
7:54 PM 78.1 °F - 66.0 °F 66% 29.92 in 10.0 mi West 4.6 mph - N/A   Clear
8:54 PM 75.9 °F - 64.9 °F 69% 29.94 in 10.0 mi West 6.9 mph - N/A   Clear
9:54 PM 73.9 °F - 64.9 °F 73% 29.96 in 10.0 mi West 6.9 mph - N/A   Clear
10:54 PM 73.0 °F - 64.9 °F 76% 29.97 in 10.0 mi WNW 6.9 mph - N/A   Partly Cloudy
11:54 PM 73.0 °F - 66.0 °F 79% 29.98 in 10.0 mi NW 8.1 mph - N/A   Clear